Вернуться в каталог

STARLINK-3315

АктивенСвязьVLEO
NORAD 50848·PAYLOAD·🇺🇸 United States

Запущен Jan 6, 2022 с Cape Canaveral Space Force Station

Loading…

Ближайшие Пролёты (ближайшие 24 часа)

TLE

СвежийSource: CelesTrak SupGP

Эпоха: Sep 14, 2026, 14:29 UTC

1 50848C 22001AX  26257.60395833 -.00021177  00000+0 -62573-3 0  2571
2 50848  53.1599  37.6345 0001213  86.5241 159.6459 15.34398137    14

Отслеживайте STARLINK-3315 в реальном времени с AllMySat

Download on the App Store